K9APR Weather Reports


time (UTC)temp
F
wind
direction
speed
knots
gust
knots
rain 1hr
in
rain 24hr
in
rain mn
in
humidity
%
barometer
mb
20260831151309 81 172 0.0 0.0 0.00 0.00 0.00 82 1018.9
20260831151228 81 172 0.0 0.0 0.00 0.00 0.00 82 1018.9
20260831150328 80 259 0.0 2.6 0.00 0.00 0.00 82 1018.9
20260831145429 80 249 0.0 0.9 0.00 0.00 0.00 83 1018.8
20260831144528 79 118 0.0 0.0 0.00 0.00 0.00 82 1018.8
20260831143630 79 283 0.0 0.0 0.00 0.00 0.00 82 1018.8
20260831142729 79 153 0.0 0.0 0.00 0.00 0.00 83 1018.6
20260831141828 78 205 0.0 0.0 0.00 0.00 0.00 82 1018.6
20260831140928 78 172 0.0 0.9 0.00 0.00 0.00 83 1018.6
20260831140027 77 203 0.0 0.9 0.00 0.00 0.00 83 1018.7
20260831135207 76 171 0.0 1.7 0.00 0.00 0.00 85 1018.6
20260831135128 76 171 0.0 1.7 0.00 0.00 0.00 85 1018.6
20260831134228 75 159 0.0 1.7 0.00 0.00 0.00 86 1018.6
20260831133417 75 158 0.0 0.9 0.00 0.00 0.00 88 1018.7
20260831133328 75 158 0.0 0.9 0.00 0.00 0.00 88 1018.7
20260831132535 74 167 0.0 0.0 0.00 0.00 0.00 88 1018.7
20260831132429 74 167 0.0 0.0 0.00 0.00 0.00 88 1018.7
20260831131640 73 149 0.0 0.0 0.00 0.00 0.00 89 1018.6
20260831131607 73 149 0.0 0.0 0.00 0.00 0.00 89 1018.6
20260831131528 73 149 0.0 0.0 0.00 0.00 0.00 89 1018.6
20260831130659 72 149 0.0 0.0 0.00 0.00 0.00 89 1018.6
20260831130627 72 149 0.0 0.0 0.00 0.00 0.00 89 1018.6
20260831125804 71 149 0.0 0.0 0.00 0.00 0.00 89 1018.7
20260831125728 71 149 0.0 0.0 0.00 0.00 0.00 89 1018.7
20260831125013 71 149 0.0 0.0 0.00 0.00 0.00 89 1018.6
20260831124859 71 149 0.0 0.0 0.00 0.00 0.00 89 1018.6
20260831124827 71 149 0.0 0.0 0.00 0.00 0.00 89 1018.6
20260831124001 71 149 0.0 0.0 0.00 0.00 0.00 89 1018.6
20260831123928 71 149 0.0 0.0 0.00 0.00 0.00 89 1018.6
20260831123233 71 149 0.0 0.0 0.00 0.00 0.00 89 1018.5
20260831123115 71 149 0.0 0.0 0.00 0.00 0.00 89 1018.5
20260831123029 71 149 0.0 0.0 0.00 0.00 0.00 89 1018.5
20260831122129 70 154 0.0 0.0 0.00 0.00 0.00 89 1018.5
20260831121315 70 154 0.0 0.0 0.00 0.00 0.00 89 1018.4
20260831121229 70 154 0.0 0.0 0.00 0.00 0.00 89 1018.4
20260831120410 70 154 0.0 0.0 0.00 0.00 0.00 89 1018.3
20260831120336 70 154 0.0 0.0 0.00 0.00 0.00 89 1018.3
20260831115552 70 154 0.0 0.0 0.00 0.00 0.00 89 1018.4
20260831115502 70 154 0.0 0.0 0.00 0.00 0.00 89 1018.4
20260831115430 70 154 0.0 0.0 0.00 0.00 0.00 89 1018.4
20260831114602 70 154 0.0 0.0 0.00 0.00 0.00 90 1018.3
20260831114531 70 154 0.0 0.0 0.00 0.00 0.00 90 1018.3
20260831113659 70 154 0.0 0.0 0.00 0.00 0.00 90 1018.3
20260831113627 70 154 0.0 0.0 0.00 0.00 0.00 90 1018.3
20260831112920 69 154 0.0 0.0 0.00 0.00 0.00 90 1018.3
20260831112727 69 154 0.0 0.0 0.00 0.00 0.00 90 1018.3
20260831111908 69 154 0.0 0.0 0.00 0.00 0.00 90 1018.3
20260831111828 69 154 0.0 0.0 0.00 0.00 0.00 90 1018.3
20260831111015 69 154 0.0 0.0 0.00 0.00 0.00 89 1018.2
20260831110928 69 154 0.0 0.0 0.00 0.00 0.00 89 1018.2
20260831110238 70 154 0.0 0.0 0.00 0.00 0.00 89 1018.1
20260831110134 70 154 0.0 0.0 0.00 0.00 0.00 89 1018.1
20260831110027 70 154 0.0 0.0 0.00 0.00 0.00 89 1018.1
20260831105343 70 154 0.0 0.0 0.00 0.00 0.00 89 1018.0
20260831105310 70 154 0.0 0.0 0.00 0.00 0.00 89 1018.0
20260831105128 70 154 0.0 0.0 0.00 0.00 0.00 89 1018.0
20260831104437 70 154 0.0 0.0 0.00 0.00 0.00 89 1017.9
20260831104350 70 154 0.0 0.0 0.00 0.00 0.00 89 1017.9
20260831104228 70 154 0.0 0.0 0.00 0.00 0.00 89 1017.9
20260831103641 71 154 0.0 0.0 0.00 0.00 0.00 88 1017.7
20260831103405 71 154 0.0 0.0 0.00 0.00 0.00 88 1017.7
20260831103328 71 154 0.0 0.0 0.00 0.00 0.00 88 1017.7
20260831102428 71 154 0.0 0.0 0.00 0.00 0.00 89 1017.6
20260831101529 71 154 0.0 0.0 0.00 0.00 0.00 89 1017.4
20260831100957 70 154 0.0 0.0 0.00 0.00 0.00 90 1017.7
20260831100813 70 154 0.0 0.0 0.00 0.00 0.00 90 1017.7
20260831100702 70 154 0.0 0.0 0.00 0.00 0.00 90 1017.7
20260831100630 70 154 0.0 0.0 0.00 0.00 0.00 90 1017.7
20260831095729 70 154 0.0 0.0 0.00 0.00 0.00 90 1017.6
20260831094828 70 154 0.0 0.0 0.00 0.00 0.00 91 1017.7
20260831093928 69 154 0.0 0.0 0.00 0.00 0.00 91 1017.5
20260831093103 69 154 0.0 0.0 0.00 0.00 0.00 91 1017.6
20260831093030 69 154 0.0 0.0 0.00 0.00 0.00 91 1017.6
20260831092129 69 154 0.0 0.0 0.00 0.00 0.00 91 1017.6
20260831091634 69 154 0.0 0.0 0.00 0.00 0.00 91 1017.8
20260831091313 69 154 0.0 0.0 0.00 0.00 0.00 91 1017.8
20260831091228 69 154 0.0 0.0 0.00 0.00 0.00 91 1017.8
20260831090417 69 154 0.0 0.0 0.00 0.00 0.00 91 1017.8
20260831090328 69 154 0.0 0.0 0.00 0.00 0.00 91 1017.8
20260831085428 69 154 0.0 0.0 0.00 0.00 0.00 90 1017.9
20260831083804 69 154 0.0 0.0 0.00 0.00 0.00 91 1017.7
20260831083629 69 154 0.0 0.0 0.00 0.00 0.00 91 1017.7
20260831083350 69 154 0.0 0.0 0.00 0.00 0.00 90 1017.6
20260831083315 69 154 0.0 0.0 0.00 0.00 0.00 90 1017.6
20260831083242 69 154 0.0 0.0 0.00 0.00 0.00 90 1017.6
20260831083158 69 154 0.0 0.0 0.00 0.00 0.00 90 1017.6
20260831083127 69 154 0.0 0.0 0.00 0.00 0.00 90 1017.6
20260831082727 69 154 0.0 0.0 0.00 0.00 0.00 90 1017.6
20260831081830 69 154 0.0 0.0 0.00 0.00 0.00 90 1017.5
20260831081159 69 154 0.0 0.0 0.00 0.00 0.00 90 1017.5
20260831081042 69 154 0.0 0.0 0.00 0.00 0.00 90 1017.5
20260831081000 69 154 0.0 0.0 0.00 0.00 0.00 90 1017.5
20260831080928 69 154 0.0 0.0 0.00 0.00 0.00 90 1017.5
20260831080111 69 154 0.0 0.0 0.00 0.00 0.00 90 1017.4
20260831080027 69 154 0.0 0.0 0.00 0.00 0.00 90 1017.4
20260831075128 69 154 0.0 0.0 0.00 0.00 0.00 89 1017.3
20260831074422 70 154 0.0 0.0 0.00 0.00 0.00 89 1017.3
20260831074234 70 154 0.0 0.0 0.00 0.00 0.00 89 1017.3
20260831073327 70 154 0.0 0.0 0.00 0.00 0.00 89 1017.4
20260831072609 70 154 0.0 0.0 0.00 0.00 0.00 89 1017.4
20260831072538 70 154 0.0 0.0 0.00 0.00 0.00 89 1017.4
20260831072507 70 154 0.0 0.0 0.00 0.00 0.00 89 1017.4
20260831072430 70 154 0.0 0.0 0.00 0.00 0.00 89 1017.4
20260831071658 70 154 0.0 0.0 0.00 0.00 0.00 89 1017.4
20260831071612 70 154 0.0 0.0 0.00 0.00 0.00 89 1017.4
20260831071528 70 154 0.0 0.0 0.00 0.00 0.00 89 1017.4
20260831070904 70 154 0.0 0.0 0.00 0.00 0.00 89 1017.2
20260831070700 70 154 0.0 0.0 0.00 0.00 0.00 89 1017.2
20260831070628 70 154 0.0 0.0 0.00 0.00 0.00 89 1017.2
20260831065802 70 154 0.0 0.0 0.00 0.00 0.00 89 1017.3
20260831065727 70 154 0.0 0.0 0.00 0.00 0.00 89 1017.3
20260831065039 70 154 0.0 0.0 0.00 0.00 0.00 89 1017.3
20260831065006 70 154 0.0 0.0 0.00 0.00 0.00 89 1017.3
20260831064902 70 154 0.0 0.0 0.00 0.00 0.00 89 1017.3
20260831064831 70 154 0.0 0.0 0.00 0.00 0.00 89 1017.3
20260831064409 70 154 0.0 0.0 0.00 0.00 0.00 89 1017.3
20260831064139 70 154 0.0 0.0 0.00 0.00 0.00 89 1017.3
20260831064009 70 154 0.0 0.0 0.00 0.00 0.00 89 1017.3
20260831063927 70 154 0.0 0.0 0.00 0.00 0.00 89 1017.3
20260831063150 70 154 0.0 0.0 0.00 0.00 0.00 89 1017.6
20260831063028 70 154 0.0 0.0 0.00 0.00 0.00 89 1017.6
20260831062201 70 154 0.0 0.0 0.00 0.00 0.00 89 1017.6
20260831062128 70 154 0.0 0.0 0.00 0.00 0.00 89 1017.6
20260831060508 71 154 0.0 0.0 0.00 0.00 0.00 89 1017.8
20260831060418 71 154 0.0 0.0 0.00 0.00 0.00 89 1017.8
20260831060328 71 154 0.0 0.0 0.00 0.00 0.00 89 1017.8
20260831055604 71 154 0.0 0.0 0.00 0.00 0.00 89 1017.8
20260831055459 71 154 0.0 0.0 0.00 0.00 0.00 89 1017.8
20260831055428 71 154 0.0 0.0 0.00 0.00 0.00 89 1017.8
20260831054603 71 154 0.0 0.0 0.00 0.00 0.00 89 1017.8
20260831054528 71 154 0.0 0.0 0.00 0.00 0.00 89 1017.8
20260831053902 71 154 0.0 0.0 0.00 0.00 0.00 89 1017.9
20260831053627 71 154 0.0 0.0 0.00 0.00 0.00 89 1017.9
20260831052816 71 154 0.0 0.0 0.00 0.00 0.00 89 1018.1
20260831052730 71 154 0.0 0.0 0.00 0.00 0.00 89 1018.1
20260831052352 71 154 0.0 0.0 0.00 0.00 0.00 89 1018.1
20260831052156 71 154 0.0 0.0 0.00 0.00 0.00 89 1018.1
20260831052006 71 154 0.0 0.0 0.00 0.00 0.00 89 1018.1
20260831051900 71 154 0.0 0.0 0.00 0.00 0.00 89 1018.1
20260831051829 71 154 0.0 0.0 0.00 0.00 0.00 89 1018.1
20260831050111 71 154 0.0 0.0 0.00 0.00 0.00 89 1018.1
20260831050028 71 154 0.0 0.0 0.00 0.00 0.00 89 1018.1
20260831045128 71 154 0.0 0.0 0.00 0.00 0.00 89 1017.9
20260831044356 71 154 0.0 0.0 0.00 0.00 0.00 89 1017.8
20260831044258 71 154 0.0 0.0 0.00 0.00 0.00 89 1017.8
20260831044228 71 154 0.0 0.0 0.00 0.00 0.00 89 1017.8
20260831043401 71 154 0.0 0.0 0.00 0.00 0.00 89 1017.9
20260831043328 71 154 0.0 0.0 0.00 0.00 0.00 89 1017.9
20260831042513 71 154 0.0 0.0 0.00 0.00 0.00 89 1018.0
20260831042429 71 154 0.0 0.0 0.00 0.00 0.00 89 1018.0
20260831042104 71 154 0.0 0.0 0.00 0.00 0.00 89 1017.9
20260831041851 71 154 0.0 0.0 0.00 0.00 0.00 89 1017.9
20260831041814 71 154 0.0 0.0 0.00 0.00 0.00 89 1017.9
20260831041636 71 154 0.0 0.0 0.00 0.00 0.00 89 1017.9
20260831041602 71 154 0.0 0.0 0.00 0.00 0.00 89 1017.9
20260831041529 71 154 0.0 0.0 0.00 0.00 0.00 89 1017.9
20260831040904 72 154 0.0 0.0 0.00 0.00 0.00 89 1017.9
20260831040659 72 154 0.0 0.0 0.00 0.00 0.00 89 1017.9
20260831040627 72 154 0.0 0.0 0.00 0.00 0.00 89 1017.9
20260831040047 72 154 0.0 0.0 0.00 0.00 0.00 89 1017.7
20260831035910 72 154 0.0 0.0 0.00 0.00 0.00 89 1017.7
20260831035839 72 154 0.0 0.0 0.00 0.00 0.00 89 1017.7
20260831035729 72 154 0.0 0.0 0.00 0.00 0.00 89 1017.7
20260831035212 72 154 0.0 0.0 0.00 0.00 0.00 89 1017.9
20260831035033 72 154 0.0 0.0 0.00 0.00 0.00 89 1017.9
20260831034955 72 154 0.0 0.0 0.00 0.00 0.00 89 1017.9
20260831034924 72 154 0.0 0.0 0.00 0.00 0.00 89 1017.9
20260831034828 72 154 0.0 0.0 0.00 0.00 0.00 89 1017.9
20260831034155 72 154 0.0 0.0 0.00 0.00 0.00 89 1017.9
20260831033958 72 154 0.0 0.0 0.00 0.00 0.00 89 1017.9
20260831033927 72 154 0.0 0.0 0.00 0.00 0.00 89 1017.9
20260831033307 72 154 0.0 0.0 0.00 0.00 0.00 89 1018.1
20260831033218 72 154 0.0 0.0 0.00 0.00 0.00 89 1018.1
20260831033108 72 154 0.0 0.0 0.00 0.00 0.00 89 1018.1
20260831033034 72 154 0.0 0.0 0.00 0.00 0.00 89 1018.1
20260831032420 72 154 0.0 0.0 0.00 0.00 0.00 89 1018.2
20260831032338 72 154 0.0 0.0 0.00 0.00 0.00 89 1018.2
20260831032127 72 154 0.0 0.0 0.00 0.00 0.00 89 1018.2
20260831031622 72 154 0.0 0.0 0.00 0.00 0.00 90 1018.1
20260831031227 72 154 0.0 0.0 0.00 0.00 0.00 90 1018.1
20260831030406 72 154 0.0 0.0 0.00 0.00 0.00 90 1018.1
20260831030329 72 154 0.0 0.0 0.00 0.00 0.00 90 1018.1
20260831025639 72 154 0.0 0.0 0.00 0.00 0.00 90 1018.2
20260831025428 72 154 0.0 0.0 0.00 0.00 0.00 90 1018.2
20260831024653 72 154 0.0 0.0 0.00 0.00 0.00 90 1018.2
20260831024612 72 154 0.0 0.0 0.00 0.00 0.00 90 1018.2
20260831024527 72 154 0.0 0.0 0.00 0.00 0.00 90 1018.2
20260831023834 72 154 0.0 0.0 0.00 0.00 0.00 89 1018.2
20260831023628 72 154 0.0 0.0 0.00 0.00 0.00 89 1018.2
20260831022943 72 154 0.0 0.0 0.00 0.00 0.00 90 1018.2
20260831022728 72 154 0.0 0.0 0.00 0.00 0.00 90 1018.2
20260831021826 72 154 0.0 0.0 0.00 0.00 0.00 90 1018.2
20260831021154 72 154 0.0 0.0 0.00 0.00 0.00 90 1018.2
20260831020928 72 154 0.0 0.0 0.00 0.00 0.00 90 1018.2
20260831020027 72 154 0.0 0.0 0.00 0.00 0.00 90 1018.2
20260831015307 71 154 0.0 0.0 0.00 0.00 0.00 89 1018.1
20260831015127 71 154 0.0 0.0 0.00 0.00 0.00 89 1018.1
20260831014446 72 154 0.0 0.0 0.00 0.00 0.00 89 1018.0
20260831014229 72 154 0.0 0.0 0.00 0.00 0.00 89 1018.0
20260831013329 72 154 0.0 0.0 0.00 0.00 0.00 89 1017.9
20260831012428 72 154 0.0 0.0 0.00 0.00 0.00 89 1017.8
20260831011528 72 154 0.0 0.0 0.00 0.00 0.00 89 1017.8
20260831010700 72 154 0.0 0.0 0.00 0.00 0.00 88 1017.8
20260831010628 72 154 0.0 0.0 0.00 0.00 0.00 88 1017.8
20260831005804 73 154 0.0 0.0 0.00 0.00 0.00 87 1017.8
20260831005728 73 154 0.0 0.0 0.00 0.00 0.00 87 1017.8
20260831004828 73 154 0.0 0.0 0.00 0.00 0.00 87 1017.7
20260831004235 74 154 0.0 0.0 0.00 0.00 0.00 86 1017.7
20260831004003 74 154 0.0 0.0 0.00 0.00 0.00 86 1017.7
20260831003928 74 154 0.0 0.0 0.00 0.00 0.00 86 1017.7
20260831003417 74 154 0.0 0.0 0.00 0.00 0.00 86 1017.7
20260831003027 74 154 0.0 0.0 0.00 0.00 0.00 86 1017.7
20260831002217 75 154 0.0 0.0 0.00 0.00 0.00 85 1017.6
20260831002128 75 154 0.0 0.0 0.00 0.00 0.00 85 1017.6
20260831001324 75 154 0.0 0.0 0.00 0.00 0.00 85 1017.6
20260831001227 75 154 0.0 0.0 0.00 0.00 0.00 85 1017.6
20260831000328 76 154 0.0 0.0 0.00 0.00 0.00 84 1017.5
20260830235458 77 154 0.0 0.0 0.00 0.00 0.00 83 1017.6
20260830235428 77 154 0.0 0.0 0.00 0.00 0.00 83 1017.6
20260830234527 78 154 0.0 0.0 0.00 0.00 0.00 82 1017.5
20260830232800 79 154 0.0 0.0 0.00 0.00 0.00 80 1017.7
20260830232729 79 154 0.0 0.0 0.00 0.00 0.00 80 1017.7
20260830231831 80 154 0.0 0.0 0.00 0.00 0.00 80 1017.7
20260830230928 81 154 0.0 0.0 0.00 0.00 0.00 78 1017.5
20260830230028 81 154 0.0 0.0 0.00 0.00 0.00 77 1017.4
20260830225128 81 154 0.0 0.0 0.00 0.00 0.00 77 1017.2
20260830224227 82 154 0.0 0.0 0.00 0.00 0.00 75 1017.2
20260830223328 82 154 0.0 0.0 0.00 0.00 0.00 73 1017.2
20260830222428 82 154 0.0 0.0 0.00 0.00 0.00 72 1017.2
20260830221528 82 154 0.0 0.0 0.00 0.00 0.00 71 1017.2
20260830220629 82 106 0.0 0.9 0.00 0.00 0.00 73 1016.9
20260830215728 82 133 0.0 0.0 0.00 0.00 0.00 73 1016.9
20260830214828 81 154 0.0 0.9 0.00 0.00 0.00 73 1016.9
20260830213928 82 197 0.0 0.9 0.00 0.00 0.00 73 1017.1
20260830213029 81 133 0.0 0.9 0.00 0.00 0.00 77 1017.2
20260830212128 80 126 0.0 0.9 0.00 0.00 0.00 76 1017.1
20260830211228 80 149 0.0 0.0 0.00 0.00 0.00 77 1017.3
20260830210328 79 154 0.0 0.9 0.00 0.00 0.00 76 1017.3
20260830205427 79 126 0.0 0.0 0.00 0.00 0.00 76 1017.5
20260830204529 79 151 0.0 0.0 0.00 0.00 0.00 76 1017.5
20260830203627 78 147 0.0 0.0 0.00 0.00 0.00 76 1017.5
20260830202728 78 134 0.0 0.0 0.00 0.00 0.00 76 1017.4
20260830201827 79 147 0.0 0.0 0.00 0.00 0.00 75 1017.3
20260830200929 79 151 0.0 0.0 0.00 0.00 0.00 73 1017.7
20260830200028 80 214 0.0 0.0 0.00 0.00 0.00 73 1017.7
20260830195127 80 128 0.9 1.7 0.00 0.00 0.00 73 1017.6
20260830194227 81 125 0.0 1.7 0.00 0.00 0.00 72 1017.9
20260830193328 81 125 0.0 0.9 0.00 0.00 0.00 74 1018.3
20260830192427 81 135 0.0 0.0 0.00 0.00 0.00 74 1018.7
20260830191527 81 136 0.0 0.9 0.00 0.00 0.00 72 1018.9
20260830190628 81 135 0.0 0.9 0.00 0.00 0.00 71 1019.0
20260830185727 82 139 0.0 0.0 0.00 0.00 0.00 68 1019.1
20260830184827 82 142 0.0 0.0 0.00 0.00 0.00 67 1019.3
20260830183926 83 319 0.0 0.0 0.00 0.00 0.00 69 1019.4
20260830182127 83 320 0.0 0.0 0.00 0.00 0.00 71 1019.6
20260830181226 83 320 0.0 0.0 0.00 0.00 0.00 69 1019.8
20260830180326 82 321 0.0 0.0 0.00 0.00 0.00 74 1020.1
20260830175427 81 321 0.0 0.0 0.00 0.00 0.00 72 1020.4
20260830174529 81 321 0.0 0.0 0.00 0.00 0.00 74 1020.5
20260830173627 81 321 0.0 0.0 0.00 0.00 0.00 74 1020.5
20260830172728 81 321 0.0 0.0 0.00 0.00 0.00 75 1020.7
20260830171828 80 321 0.0 0.9 0.00 0.00 0.00 74 1020.7
20260830170928 81 321 0.0 0.0 0.00 0.00 0.00 72 1021.0
20260830170028 80 321 0.0 0.0 0.00 0.00 0.00 75 1020.9
20260830165200 80 321 0.0 0.0 0.00 0.00 0.00 74 1021.0
20260830165128 80 321 0.0 0.0 0.00 0.00 0.00 74 1021.0
20260830164311 80 321 0.0 0.9 0.00 0.00 0.00 74 1021.1
20260830164228 80 321 0.0 0.9 0.00 0.00 0.00 74 1021.1
20260830163327 80 303 0.0 0.0 0.00 0.00 0.00 77 1021.1
20260830162427 79 303 0.0 0.0 0.00 0.00 0.00 74 1021.1
20260830161528 79 275 0.0 0.0 0.00 0.00 0.00 75 1021.0
20260830160628 79 311 0.0 0.0 0.00 0.00 0.00 76 1021.0
20260830155727 79 312 0.0 0.9 0.00 0.00 0.00 75 1020.9
20260830154932 79 310 0.0 1.7 0.00 0.00 0.00 75 1020.8
20260830154827 79 310 0.0 1.7 0.00 0.00 0.00 75 1020.8
20260830153928 79 208 0.0 0.0 0.00 0.00 0.00 78 1020.6
20260830153026 79 224 0.0 0.9 0.00 0.00 0.00 77 1020.4
20260830152128 79 189 0.0 0.0 0.00 0.00 0.00 78 1020.1